Location: Unspecified
(0.0000°N, 0.0000°E)
Time: 11:15:22
(UTC+00:00)

Vanguard 1 Rocket - Pass Details

Date: 22 November 2019
Orbit: 650 x 4226 km, 34.3° (Epoch: 13 December)

Event Time Altitude Azimuth Distance (km) Brightness Sun altitude
Rises 00:27:42 0° 260° (W) 5,562 - -67.5°
Reaches altitude 10° 00:33:31 10° 277° (W) 3,814 - -66.8°
Maximum altitude 00:39:05 17° 315° (NW) 2,582 - -66.1°
Drops below altitude 10° 00:43:10 10° 356° (N) 2,632 - -65.6°
Sets 00:46:11 0° 18° (NNE) 3,276 - -65.1°
